User: anonymous   Login
Location: Stockholm
(59.3330°N, 18.0500°E)
Time: 19:56:54
(UTC+02:00)
Language:

CSL-04 Rocket - Orbit

View from above orbital plane
View from above orbital plane
View from above satellite
View from above satellite

Ground track
Ground track

The orbit data is extracted from the following two-line orbital elements,

1 25732U 99025C   24148.74069907  .00000118  00000-0  78499-4 0  9996
2 25732  98.7525 194.1518 0038130  55.5236  55.2787 14.17965405295908
Epoch (UTC): 27 May 2024 17:46:36
Eccentricity: 0.0038130
inclination: 98.7525°
perigee height: 805 km
apogee height: 860 km
right ascension of ascending node: 194.1518°
argument of perigee: 55.5236°
revolutions per day: 14.17965405
mean anomaly at epoch: 55.2787°
orbit number at epoch: 29590

The dashed part of the orbit path shows where the satellite is in the earth's shadow,  

DLR